Location: Mentone
(34.5413°N, 85.5351°W)
Time: 06:34:34
(UTC-06:00)

Centaur AC-72 - Visible Passes

Search period start: 06 March 2015 00:00
Search period end: 16 March 2015 01:00
Orbit: 1133 x 35223 km, 19.0° (Epoch: 01 March)

Date Brightness Start Highest point End Pass type
(mag) Time Alt. Az. Time Alt. Az. Time Alt. Az.
06 Mar 4.7 03:52:56 17° S 03:56:46 25° SSE 04:10:20 10° E visible
08 Mar 6.5 10:17:14 10° WSW 10:49:15 56° S 20:01:09 10° SSE visible
10 Mar 4.6 04:37:52 20° S 04:40:52 25° SSE 04:53:39 10° E visible
12 Mar 6.4 10:01:27 10° WSW 10:32:12 55° S 19:45:47 10° SSE visible
14 Mar 4.6 04:22:46 22° S 04:24:58 25° SSE 04:37:04 10° E visible
